This is the latest recevied weather packets stored in our database for station/object IZ1MEU-13. If no packets are shown the sender has not sent any weather packets the latest 10 day(s).
| Time | Temp. | Humidity | Pressure | Rain* | Wind** | Luminosity | Snow |
|---|---|---|---|---|---|---|---|
| 1777501345 | 14.44° C | 51% | 1020.3 hPa | - | - | - | - |
| 1777500141 | 15° C | 50% | 1020.3 hPa | - | - | - | - |
| 1777498937 | 15° C | 49% | 1020.1 hPa | - | - | - | - |
| 1777497733 | 15° C | 49% | 1019.8 hPa | - | - | - | - |
| 1777496529 | 14.44° C | 50% | 1019.6 hPa | - | - | - | - |
| 1777495325 | 14.44° C | 50% | 1019.5 hPa | - | - | - | - |
| 1777494121 | 14.44° C | 50% | 1019.4 hPa | - | - | - | - |
| 1777492917 | 15° C | 49% | 1019.3 hPa | - | - | - | - |
| 1777491713 | 15° C | 48% | 1019.2 hPa | - | - | - | - |
| 1777490509 | 15° C | 48% | 1018.9 hPa | - | - | - | - |
| 1777489304 | 15.56° C | 47% | 1018.7 hPa | - | - | - | - |
| 1777488101 | 16.11° C | 45% | 1018.6 hPa | - | - | - | - |
| 1777486896 | 16.67° C | 44% | 1018.5 hPa | - | - | - | - |
| 1777485692 | 17.78° C | 42% | 1018.3 hPa | - | - | - | - |
| 1777484488 | 18.33° C | 41% | 1018.1 hPa | - | - | - | - |
| 1777484044 | 18.89° C | 40% | 1018.1 hPa | - | - | - | - |
| 1777482841 | 19.44° C | 38% | 1018 hPa | - | - | - | - |
| 1777481637 | 20.56° C | 36% | 1018 hPa | - | - | - | - |
| 1777480434 | 21.11° C | 37% | 1018 hPa | - | - | - | - |
| 1777479230 | 21.11° C | 37% | 1017.8 hPa | - | - | - | - |
| 1777478027 | 21.11° C | 38% | 1018.1 hPa | - | - | - | - |
| 1777476823 | 21.11° C | 38% | 1018.1 hPa | - | - | - | - |
| 1777475620 | 21.11° C | 39% | 1018.1 hPa | - | - | - | - |
| 1777474416 | 21.11° C | 40% | 1018.3 hPa | - | - | - | - |
| 1777473213 | 21.11° C | 41% | 1018.5 hPa | - | - | - | - |
* Rain since midnight (hover to see other rain measurements)
** Current wind speed in m/s (hover to see current wind gust speed)